Location: Columbia
(38.9520°N, 92.3340°W)
Time: 05:34:57
(UTC-05:00)

Iridium 52 - Visible Passes

Search period start: 24 April 2018 00:00
Search period end: 04 May 2018 00:00
Orbit: 776 x 779 km, 86.4° (Epoch: 23 April)

Date Brightness Start Highest point End Pass type
(mag) Time Alt. Az. Time Alt. Az. Time Alt. Az.
24 Apr 8.6 00:45:05 13° NE 00:45:05 13° NE 00:45:58 10° NE visible
24 Apr 7.9 02:25:33 24° NNW 02:25:33 24° NNW 02:27:45 10° N visible
25 Apr 7.8 01:52:03 27° N 01:52:03 27° N 01:54:24 10° N visible
26 Apr 8.0 01:18:32 24° NNE 01:18:32 24° NNE 01:20:44 10° NNE visible
26 Apr 8.3 02:59:00 14° NW 02:59:00 14° NW 03:00:09 10° NW visible
27 Apr 8.3 00:45:01 18° NE 00:45:01 18° NE 00:46:40 10° NNE visible
27 Apr 8.0 02:25:29 21° NW 02:25:29 21° NW 02:27:34 10° NNW visible
28 Apr 8.6 00:11:30 11° NE 00:11:30 11° NE 00:11:53 10° NE visible
28 Apr 7.8 01:51:58 28° NNW 01:51:58 28° NNW 01:54:26 10° N visible
29 Apr 7.8 01:18:27 29° N 01:18:27 29° N 01:20:57 10° N visible
29 Apr 8.5 02:58:54 10° NW 02:58:54 10° NW 02:58:55 10° NW visible
30 Apr 8.0 00:44:55 23° NE 00:44:55 23° NE 00:47:08 10° NNE visible
30 Apr 8.2 02:25:23 17° NW 02:25:23 17° NW 02:27:11 10° NNW visible
01 May 8.3 00:11:23 16° NE 00:11:23 16° NE 00:12:52 10° NNE visible
01 May 7.8 01:51:50 25° NNW 01:51:50 25° NNW 01:54:20 10° NNW visible
02 May 7.6 01:18:18 32° N 01:18:18 32° N 01:21:03 10° N visible
03 May 7.6 00:44:45 30° NNE 00:44:45 30° NNE 00:47:26 10° N visible
03 May 8.4 02:25:13 13° NW 02:25:13 13° NW 02:26:28 10° NW visible
